Regional Weather Roundup
Issued by NWS Lake Charles, LA

Home | Current Version | Previous Version | Text Only | Print | Product List | Glossary On
Versions: 1 2 3 4 5 6 7 8 9 10 11 12 13 14 15 16 17 18 19 20 21 22 23 24 25 26 27 28 29 30 31 32 33 34 35 36 37 38 39 40 41 42 43 44 45 46 47 48 49 50
000
ASUS44 KLCH 241710
RWRLCH
REGIONAL WEATHER ROUNDUP
NATIONAL WEATHER SERVICE LAKE CHARLES LA
1100 AM CST FRI NOV 24 2017

Note: "fair" indicates few or no clouds below 12,000 feet with no
significant weather and/or obstructions to visibility.


ACROSS SOUTHEAST TEXAS

CITY           SKY/WX    TMP DP  RH WIND       PRES   REMARKS
BEAUMONT       SUNNY     62  38  40 VRB6      30.05F
BEAUMONT CITY  FAIR      65  37  34 SE6       30.05F
ORANGE         SUNNY     61  40  46 S5        30.07F
JASPER         SUNNY     61  41  47 SW5       30.07S
$$

ACROSS CENTRAL LOUISIANA

CITY           SKY/WX    TMP DP  RH WIND       PRES   REMARKS
LEESVILLE      SUNNY     60  33  36 CALM      30.03F
FULLERTON      FAIR      62  33  33 VRB5      30.02
ALEXANDRIA INT SUNNY     59  32  36 S5        30.03F
ESLER FIELD    SUNNY     60  29  30 SE5       30.04F
DERIDDER       FAIR      60  32  34 S5        30.07F
OAKDALE        SUNNY     60  32  34 S3        30.05F
OPELOUSAS      FAIR      58  31  36 CALM      30.06F
$$

ACROSS SOUTHWEST AND SOUTH CENTRAL LOUISIANA

CITY           SKY/WX    TMP DP  RH WIND       PRES   REMARKS
SULPHUR        SUNNY     61  32  33 SE6       30.07F
LAKE CHARLES   SUNNY     60  34  37 SE5       30.06F
CHENNAULT INT  NOT AVBL
CAMERON PHI    SUNNY     59  37  44 SE7       30.07F
DEQUINCY       FAIR      59  33  38 CALM      30.06F
JENNINGS       FAIR      58  30  33 E3        30.07S
LAFAYETTE      SUNNY     60  32  34 CALM      30.06F
NEW IBERIA     SUNNY     61  26  26 CALM      30.06F
ABBEVILLE      FAIR      58  27  29 NE3       30.06F
PATTERSON      SUNNY     60  33  36 W3        30.05F
SALT POINT       N/A      1  32 100 VRB6      30.04F WCI -10
$$

SELECTED SITES ACROSS THE REGION

CITY           SKY/WX    TMP DP  RH WIND       PRES   REMARKS
HOUSTON BUSH   MOSUNNY   65  40  39 S5        30.04F
HOUSTON HOBBY  MOSUNNY   65  41  41 S5        30.04F
GALVESTON      SUNNY     66  40  38 SE5       30.06F
COLLEGE STAT   SUNNY     66  39  37 S14       30.02F
CONROE         SUNNY     63  43  48 SW6       30.03F
HUNTSVILLE     SUNNY     63  39  41 S9        30.02F
LUFKIN         SUNNY     61  40  45 S7        30.03F
SHREVEPORT     MOSUNNY   64  37  36 S8        30.01F
MONROE         SUNNY     59  32  36 S9        30.05F
NATCHEZ MS     SUNNY     58  27  30 CALM      30.05F
BATON ROUGE    SUNNY     59  27  29 CALM      30.05F
N.O. INTL ARPT MOSUNNY   61  32  33 VRB3      30.04F
SLIDELL        SUNNY     61  25  25 CALM      30.02F
$$

MARINE REPORTS

STATION/POSITION TIME  SKY/WX   TEMP    WIND        PRES    VSBY
                                AIR SEA DIR/SP/G
                 (UTC)          (F)     (DEG/KT/KT) (MB)    (MI)
BUOY 30 S HIGH I 1550            63 69  110/  2/  4 1018.0
WVE H/P(F/S)=  1

SEA RIM ST PARK  1700            61     130/  7/ 10 1017.9F
PORT ARTHUR      1648            58 63   90/  5/  6 1017.8F
SABINE PASS N    1648            61 65  140/  7/  9 1019.1F
TEXAS POINT      NOT AVBL
CALCASIEU PASS   1648            59 60  150/  5/  8 1016.8F
LK CHARLES BEACH 1648            60 65              1017.4F
MARSH ISLAND     1600            54                   N/A
FRESH WATER LOCK 1648            59 64   CALM  /  4 1017.9F
AMERADA PASS     1648            58 56   80/  2/  5 1017.4F
$$



USA.gov is the U.S. government's official web portal to all federal, state and local government web resources and services.